| time (UTC) | temp C | wind direction | speed KPH | gust KPH | rain 1hr cm | rain 24hr cm | rain mn cm | humidity % | barometer mb |
| 20260906104512 | 21 | 65 | 0.0 | 0.0 | 0.00 | 0.00 | 0.00 | 96 | 1010.0 |
| 20260906103011 | 21 | 65 | 0.0 | 0.0 | 0.00 | 0.00 | 0.00 | 96 | 1010.0 |
| 20260906101510 | 21 | 65 | 0.0 | 0.0 | 0.00 | 0.00 | 0.00 | 96 | 1010.0 |
| 20260906100008 | 22 | 65 | 0.0 | 0.0 | 0.00 | 0.00 | 0.00 | 96 | 1009.9 |
| 20260906094507 | 22 | 65 | 0.0 | 3.2 | 0.00 | 0.00 | 0.00 | 96 | 1009.8 |
| 20260906093012 | 22 | 65 | 0.0 | 3.2 | 0.00 | 0.00 | 0.00 | 96 | 1009.7 |
| 20260906091505 | 22 | 85 | 0.0 | 0.0 | 0.00 | 0.00 | 0.00 | 96 | 1009.7 |
| 20260906090005 | 22 | 358 | 0.0 | 1.6 | 0.00 | 0.00 | 0.00 | 95 | 1009.7 |
| 20260906084504 | 22 | 356 | 0.0 | 1.6 | 0.00 | 0.00 | 0.00 | 95 | 1009.7 |
| 20260906083004 | 22 | 39 | 0.0 | 1.6 | 0.00 | 0.00 | 0.00 | 95 | 1009.6 |
| 20260906081503 | 22 | 39 | 0.0 | 0.0 | 0.00 | 0.00 | 0.00 | 95 | 1009.6 |
| 20260906080002 | 22 | 39 | 1.6 | 4.8 | 0.00 | 0.00 | 0.00 | 95 | 1009.7 |
| 20260906074504 | 22 | 251 | 1.6 | 3.2 | 0.00 | 0.00 | 0.00 | 94 | 1009.9 |
| 20260906073103 | 22 | 251 | 0.0 | 4.8 | 0.00 | 0.00 | 0.00 | 94 | 1010.0 |
| 20260906071600 | 22 | 263 | 0.0 | 3.2 | 0.00 | 0.00 | 0.00 | 94 | 1009.9 |
| 20260906070058 | 22 | 312 | 0.0 | 3.2 | 0.00 | 0.00 | 0.00 | 94 | 1009.4 |
| 20260906064556 | 22 | 312 | 0.0 | 1.6 | 0.00 | 0.00 | 0.00 | 93 | 1009.2 |
| 20260906063053 | 22 | 300 | 1.6 | 4.8 | 0.00 | 0.00 | 0.00 | 94 | 1009.6 |
| 20260906061552 | 23 | 281 | 0.0 | 0.0 | 0.00 | 0.00 | 0.00 | 93 | 1009.7 |
| 20260906060056 | 23 | 281 | 0.0 | 3.2 | 0.00 | 0.00 | 0.00 | 93 | 1009.8 |
| 20260906054546 | 23 | 277 | 3.2 | 4.8 | 0.00 | 0.00 | 0.00 | 93 | 1009.9 |
| 20260906053039 | 23 | 268 | 1.6 | 3.2 | 0.00 | 0.00 | 0.00 | 93 | 1010.2 |
| 20260906051537 | 22 | 91 | 0.0 | 1.6 | 0.00 | 0.00 | 0.00 | 93 | 1010.0 |
| 20260906050034 | 22 | 280 | 1.6 | 3.2 | 0.00 | 0.00 | 0.00 | 92 | 1010.2 |
| 20260906044534 | 23 | 280 | 0.0 | 3.2 | 0.00 | 0.00 | 0.00 | 93 | 1010.3 |
| 20260906043031 | 23 | 280 | 0.0 | 1.6 | 0.00 | 0.00 | 0.00 | 92 | 1010.4 |
| 20260906041538 | 23 | 280 | 0.0 | 0.0 | 0.00 | 0.00 | 0.00 | 91 | 1010.6 |
| 20260906040022 | 23 | 280 | 1.6 | 3.2 | 0.00 | 0.00 | 0.00 | 91 | 1010.6 |
| 20260906034526 | 23 | 280 | 1.6 | 3.2 | 0.00 | 0.00 | 0.00 | 91 | 1010.7 |
| 20260906033020 | 23 | 280 | 0.0 | 6.4 | 0.00 | 0.00 | 0.00 | 90 | 1010.4 |
| 20260906031520 | 23 | 103 | 0.0 | 1.6 | 0.00 | 0.00 | 0.00 | 91 | 1010.6 |
| 20260906030020 | 23 | 262 | 3.2 | 6.4 | 0.00 | 0.00 | 0.00 | 89 | 1010.4 |
| 20260906024519 | 23 | 52 | 0.0 | 6.4 | 0.00 | 0.00 | 0.00 | 90 | 1010.3 |
| 20260906023020 | 23 | 284 | 1.6 | 3.2 | 0.00 | 0.00 | 0.00 | 89 | 1010.0 |
| 20260906021519 | 24 | 284 | 0.0 | 1.6 | 0.00 | 0.00 | 0.00 | 88 | 1009.9 |
| 20260906020018 | 24 | 284 | 0.0 | 3.2 | 0.00 | 0.00 | 0.00 | 88 | 1009.8 |
| 20260906014523 | 24 | 284 | 0.0 | 3.2 | 0.00 | 0.00 | 0.00 | 88 | 1009.6 |
| 20260906013017 | 24 | 284 | 0.0 | 3.2 | 0.00 | 0.00 | 0.00 | 87 | 1009.7 |
| 20260906011516 | 25 | 284 | 1.6 | 4.8 | 0.00 | 0.00 | 0.00 | 85 | 1009.5 |
| 20260906010015 | 25 | 284 | 0.0 | 0.0 | 0.00 | 0.00 | 0.00 | 84 | 1009.4 |
| 20260906004515 | 25 | 284 | 0.0 | 1.6 | 0.00 | 0.00 | 0.00 | 83 | 1009.5 |
| 20260906003015 | 25 | 284 | 1.6 | 3.2 | 0.00 | 0.00 | 0.00 | 82 | 1009.3 |
| 20260906001514 | 26 | 284 | 0.0 | 1.6 | 0.00 | 0.00 | 0.00 | 81 | 1009.2 |
| 20260906000013 | 26 | 288 | 0.0 | 1.6 | 0.00 | 0.00 | 0.00 | 80 | 1009.5 |
| 20260905234514 | 27 | 288 | 0.0 | 3.2 | 0.00 | 0.00 | 0.00 | 77 | 1009.6 |
| 20260905233012 | 27 | 244 | 0.0 | 1.6 | 0.00 | 0.00 | 0.00 | 76 | 1009.3 |
| 20260905231512 | 27 | 242 | 0.0 | 0.0 | 0.00 | 0.00 | 0.00 | 75 | 1009.4 |
| 20260905230012 | 28 | 242 | 0.0 | 1.6 | 0.00 | 0.00 | 0.00 | 71 | 1009.2 |
| 20260905224517 | 28 | 274 | 3.2 | 8.0 | 0.00 | 0.00 | 0.00 | 69 | 1009.3 |
| 20260905223010 | 28 | 256 | 0.0 | 4.8 | 0.00 | 0.00 | 0.00 | 69 | 1009.2 |
| 20260905221526 | 28 | 243 | 1.6 | 6.4 | 0.00 | 0.00 | 0.00 | 69 | 1009.2 |
| 20260905220009 | 28 | 252 | 4.8 | 9.7 | 0.00 | 0.00 | 0.00 | 69 | 1009.2 |
| 20260905214509 | 28 | 263 | 4.8 | 9.7 | 0.00 | 0.00 | 0.00 | 69 | 1009.5 |
| 20260905213007 | 28 | 239 | 3.2 | 11.3 | 0.00 | 0.00 | 0.00 | 70 | 1009.8 |
| 20260905211507 | 28 | 114 | 4.8 | 11.3 | 0.00 | 0.00 | 0.00 | 74 | 1010.0 |
| 20260905210008 | 28 | 244 | 1.6 | 3.2 | 0.00 | 0.00 | 0.00 | 74 | 1009.4 |
| 20260905204504 | 28 | 310 | 0.0 | 4.8 | 0.00 | 0.00 | 0.00 | 73 | 1009.6 |
| 20260905203003 | 29 | 149 | 0.0 | 4.8 | 0.00 | 0.00 | 0.00 | 69 | 1010.1 |
| 20260905201502 | 30 | 216 | 0.0 | 4.8 | 0.00 | 0.00 | 0.00 | 64 | 1010.2 |
| 20260905200104 | 30 | 305 | 3.2 | 8.0 | 0.00 | 0.00 | 0.00 | 66 | 1010.3 |
| 20260905194559 | 29 | 257 | 1.6 | 6.4 | 0.00 | 0.00 | 0.00 | 71 | 1010.3 |
| 20260905193058 | 28 | 18 | 1.6 | 4.8 | 0.00 | 0.00 | 0.00 | 72 | 1010.4 |
| 20260905191557 | 27 | 96 | 0.0 | 3.2 | 0.00 | 0.00 | 0.00 | 76 | 1010.7 |
| 20260905190112 | 26 | 29 | 1.6 | 6.4 | 0.00 | 0.00 | 0.00 | 73 | 1010.9 |
| 20260905184611 | 26 | 307 | 0.0 | 3.2 | 0.00 | 0.00 | 0.00 | 79 | 1011.0 |
| 20260905183054 | 26 | 312 | 0.0 | 11.3 | 0.00 | 0.00 | 0.00 | 80 | 1010.9 |
| 20260905181553 | 26 | 324 | 3.2 | 8.0 | 0.00 | 0.00 | 0.00 | 81 | 1011.1 |
| 20260905180052 | 27 | 347 | 3.2 | 12.9 | 0.00 | 0.00 | 0.00 | 73 | 1011.7 |
| 20260905174557 | 29 | 27 | 8.0 | 20.9 | 0.00 | 0.00 | 0.00 | 68 | 1011.3 |
| 20260905173051 | 30 | 26 | 11.3 | 25.7 | 0.00 | 0.00 | 0.00 | 62 | 1011.5 |
| 20260905171551 | 33 | 345 | 3.2 | 9.7 | 0.00 | 0.00 | 0.00 | 60 | 1011.1 |
| 20260905170048 | 32 | 238 | 1.6 | 6.4 | 0.00 | 0.00 | 0.00 | 62 | 1010.9 |
| 20260905164549 | 31 | 264 | 1.6 | 8.0 | 0.00 | 0.00 | 0.00 | 64 | 1011.7 |
| 20260905163043 | 31 | 85 | 4.8 | 11.3 | 0.00 | 0.00 | 0.00 | 64 | 1011.7 |
| 20260905161541 | 31 | 85 | 6.4 | 11.3 | 0.00 | 0.00 | 0.00 | 65 | 1011.8 |
| 20260905160040 | 30 | 79 | 3.2 | 6.4 | 0.00 | 0.00 | 0.00 | 69 | 1011.8 |
| 20260905154537 | 29 | 74 | 0.0 | 6.4 | 0.00 | 0.00 | 0.00 | 75 | 1011.8 |
| 20260905153036 | 29 | 224 | 0.0 | 3.2 | 0.00 | 0.00 | 0.00 | 76 | 1012.0 |
| 20260905151536 | 29 | 242 | 1.6 | 3.2 | 0.00 | 0.00 | 0.00 | 77 | 1012.0 |
| 20260905150035 | 28 | 259 | 4.8 | 9.7 | 0.00 | 0.00 | 0.00 | 74 | 1012.2 |
| 20260905144540 | 28 | 258 | 1.6 | 6.4 | 0.00 | 0.00 | 0.00 | 76 | 1012.1 |
| 20260905143032 | 28 | 305 | 1.6 | 4.8 | 0.00 | 0.00 | 0.00 | 77 | 1012.4 |
| 20260905141528 | 26 | 97 | 0.0 | 3.2 | 0.00 | 0.00 | 0.00 | 82 | 1012.3 |
| 20260905140023 | 26 | 97 | 1.6 | 3.2 | 0.00 | 0.00 | 0.00 | 83 | 1012.3 |
| 20260905134520 | 26 | 342 | 0.0 | 1.6 | 0.00 | 0.00 | 0.00 | 85 | 1012.4 |
| 20260905133019 | 26 | 36 | 0.0 | 3.2 | 0.00 | 0.00 | 0.00 | 86 | 1012.7 |
| 20260905131537 | 25 | 50 | 0.0 | 3.2 | 0.00 | 0.00 | 0.00 | 86 | 1012.7 |
| 20260905130015 | 25 | 50 | 0.0 | 4.8 | 0.00 | 0.00 | 0.00 | 87 | 1012.8 |
| 20260905124533 | 23 | 290 | 0.0 | 1.6 | 0.00 | 0.00 | 0.00 | 90 | 1012.8 |
| 20260905123011 | 23 | 290 | 0.0 | 1.6 | 0.00 | 0.00 | 0.00 | 93 | 1012.6 |
| 20260905121521 | 22 | 291 | 0.0 | 3.2 | 0.00 | 0.00 | 0.00 | 94 | 1012.5 |
| 20260905120010 | 22 | 291 | 0.0 | 1.6 | 0.00 | 0.00 | 0.00 | 95 | 1012.4 |
| 20260905114523 | 22 | 291 | 0.0 | 1.6 | 0.00 | 0.00 | 0.00 | 95 | 1012.3 |
| 20260905113006 | 22 | 291 | 0.0 | 0.0 | 0.00 | 0.00 | 0.00 | 95 | 1011.9 |
| 20260905111507 | 22 | 291 | 0.0 | 1.6 | 0.00 | 0.00 | 0.00 | 95 | 1011.8 |
| 20260905110004 | 22 | 291 | 0.0 | 0.0 | 0.00 | 0.00 | 0.00 | 95 | 1011.7 |